Showing default

IRIDIUM 138, 43071

Orbit data source: Space-Track

IRIDIUM 138, 43071 is a payload satellite owned by Iridium (US) in LEO that was launched on Sat, 23 Dec 2017 UTC via an FALCON 9 launch vehicle from the Air Force Western Test Range (AFWTR). Payloads include a variety of satellites, spacecraft, and rockets equipped with specific instruments for various scientific and technological missions. These include communications satellites like Starlink; space stations such as the ISS; scientific satellites like the Hubble; Earth observation satellites from companies like Planet Labs, Umbra, and HawkEye 360; GPS; miniature CubeSats for education and research; and military/defense satellites.

Loading next visibility...
IRIDIUM 138 details
Identifier
43071, 2017-083B
Orbit
LEO
Last TLE update1 day ago
Origin
Flag of USIridium (US)
ManufacturerOATK SSG Gilbert
MissionOperational Commercial Communications
Bus & MotorELITEBUS, Unknown motor
Mass860 kg wet, 700 kg dry
Launch date (UTC)
2017-12-23 (7 years ago)
Launch vehicle
FALCON 9
Launch site
Air Force Western Test Range (AFWTR)
Object type
Payload
Rocket body
Debris
Shape & HBRTrap Box + 2 Pan, 9.4 m
Radar Cross Section14.423 m², Large (>1 m²)

Expand to show TLE details & history

TLE from 1 day ago
0 IRIDIUM 138
1 43071U 17083B   24347.65679527  .00000210  00000-0  67861-4 0  9996
2 43071  86.3982 192.2034 0002580  77.8185 282.3300 14.34216256365089
Epoch: 2024-12-12T15:45Z
Definitive object data (Epoch: 2024-12-12T15:45:47.111Z)
Latitude0.00002°
Longitude-126.07688°
Altitude780.329 km
Speed7.464 km/s
True Right ascension12h 48m 48s
True Declination0° 00' 00"
Sunlit
Object was in daylight at TLE epoch
Visualization TLE readout
Latitude75.9617°
Longitude-112.19354°
Altitude788.85 km
Speed7.467 km/s
Apparent Right ascension13h 48m 11s
Apparent Declination23° 17' 53"
Sunlit
Object is in daylight
Visualization observer readout
Local Sidereal Time01:49:33
Azimuth0.352° NNE
Elevation-26.785°
Doppler factor1
Orbital elements
Apogee altitude776.482 km
Perigee altitude772.791 km
Semi-major axis7,152.774 km
Eccentricity0.000258
Inclination86.3982°
RAAN192.2034°
Arg. of periapsis77.8185°
True anomaly282.30112°
Mean anomaly282.33°
Eccentric anomaly282.31556°
Mean motion3.58783 °/min
BSTAR0.000067861
Orbital period100.34 mins
Loading maneuver chart data...
Loading historical data...
Loading historical data...
Loading historical data...
Loading historical data...
Loading historical data...
Loading historical data...
Loading historical data...

IRIDIUM 138 Visibility forecast

Observer location: undefined°, undefined

Span
Click to sort rows by Start time (UTC) header in descending order
Start Az.
Max El. time (UTC)
Max El. Az.
Max El.
End time (UTC)
End Az.
5 mins2024-12-14 13:07:51.386Z106.372° ESE2024-12-14 13:09:51.386Z79.063° E17.048°2024-12-14 13:12:51.386Z41.622° NE
8 mins2024-12-14 14:46:51.386Z209.415° SW2024-12-14 14:49:51.386Z267.199° W37.006°2024-12-14 14:54:51.386Z350.457° N
8 mins2024-12-15 01:16:51.386Z19.148° NNE2024-12-15 01:20:51.386Z92.579° ESE32.738°2024-12-15 01:24:51.386Z149.87° SSE
5 mins2024-12-15 02:58:51.386Z309.772° NW2024-12-15 03:00:51.386Z279.919° WNW20.195°2024-12-15 03:03:51.386Z238.359° WSW
|